Stations météo

réclame
Mon MeteoGroup
Cherbourg, France (7024): Température de l'air & dewpoint: 23.01.2020 01:00:00 - 29.01.2020 01:00:00 (CET)Cherbourg, France (7024): Température de l'air 5cm: 23.01.2020 01:00:00 - 29.01.2020 01:00:00 (CET)Cherbourg, France (7024): Température de l'air -20cm & Température de l'air -100cm: 23.01.2020 01:00:00 - 29.01.2020 01:00:00 (CET)Cherbourg, France (7024): Vitesse du vent & gusts: 23.01.2020 01:00:00 - 29.01.2020 01:00:00 (CET)Cherbourg, France (7024): Direction du vent: 23.01.2020 01:00:00 - 29.01.2020 01:00:00 (CET)Cherbourg, France (7024): reduced air pressure: 23.01.2020 01:00:00 - 29.01.2020 01:00:00 (CET)Cherbourg, France (7024): visibility: 23.01.2020 01:00:00 - 29.01.2020 01:00:00 (CET)Cherbourg, France (7024): Ensoleillement: 23.01.2020 01:00:00 - 29.01.2020 01:00:00 (CET)Cherbourg, France (7024): Quantités de précipitations: 23.01.2020 01:00:00 - 29.01.2020 01:00:00 (CET)
Date & Time tt [°C] td [°C] tt 5cm [°C] tt -20cm [°C] tt -100cm [°C] ff [km/h] ff [knt] fx [km/h] fx [knt] dd ppp [hPa] vv [km] sd [min] rr [mm]
29.01.2020 01:00:00 6,4 1,9 4,8 6,6 8,1 29 16 46 25 W 1008,5 19 0 0,0
29.01.2020 00:00:00 5,7 2,7 4,6 6,6 8,1 29 15 55 30 W 1007,9 20 0 0,0
28.01.2020 23:00:00 6,4 2,1 5,0 6,6 8,1 32 17 55 30 W 1007,4 14 0 0,0
28.01.2020 22:00:00 6,4 2,8 4,2 6,7 8,1 34 18 56 30 WNW 1006,6 17 0 0,0
28.01.2020 21:00:00 6,2 1,7 5,2 6,7 8,1 37 20 63 34 W 1006,1 19 0 0,0
28.01.2020 20:00:00 6,0 1,7 3,5 6,7 8,1 35 19 54 29 W 1005,4 45 0 0,0
28.01.2020 19:00:00 4,7 2,1 2,9 6,7 8,1 30 16 57 31 W 1004,7 55 0 0,0
28.01.2020 18:00:00 4,9 2,3 3,5 6,7 8,1 42 23 80 43 W 1004,2 6 14 0,4
28.01.2020 17:00:00 5,5 3,8 2,2 6,7 8,1 34 19 51 27 W 1003,2 14 2 1,0
28.01.2020 16:00:00 3,6 1,0 1,8 6,7 8,1 38 21 73 40 W 1003,0 4,4 26 0,6
28.01.2020 15:00:00 7,8 2,5 6,9 6,7 8,1 41 22 62 34 WSW 1002,2 19 37 0,2
28.01.2020 14:00:00 6,7 2,6 6,6 6,7 8,1 29 15 55 30 W 1003,0 39 22 0,0
28.01.2020 13:00:00 6,2 2,3 6,2 6,7 8,1 34 19 63 34 W 1003,3 20 19 0,0
28.01.2020 12:00:00 7,2 3,1 5,1 6,8 8,1 29 16 51 28 W 1003,0 19 46 0,0
28.01.2020 11:00:00 5,8 1,1 1,6 6,8 8,1 35 19 52 28 W 1002,3 47 44 0,0
28.01.2020 10:00:00 2,4 1,1 0,8 6,9 8,1 24 13 87 47 W 1001,7 20 0 1,2
28.01.2020 09:00:00 4,8 1,5 2,0 6,9 8,1 26 14 53 28 W 1000,3 48 0 0,4
28.01.2020 08:00:00 3,4 1,4 2,2 7,0 8,1 31 17 83 45 WNW 999,6 7 0 0,4
28.01.2020 07:00:00 4,7 0,6 2,1 7,1 8,1 40 22 64 35 W 997,9 54 0 0,0
28.01.2020 06:00:00 3,1 1,3 2,2 7,1 8,1 40 22 87 47 WSW 997,2 60 0 0,2
28.01.2020 05:00:00 5,2 1,5 3,3 7,2 8,1 34 18 61 33 W 996,2 59 0 0,0
28.01.2020 04:00:00 4,5 2,2 2,9 7,2 8,1 34 19 69 37 WSW 995,9 17 0 1,0
28.01.2020 03:00:00 5,5 3,2 3,6 7,3 8,1 29 16 52 28 W 994,9 50 0 0,0
28.01.2020 02:00:00 4,0 3,1 3,0 7,3 8,1 31 17 64 35 WSW 995,2 59 0 1,6
28.01.2020 01:00:00 5,9 4,5 4,9 7,4 8,1 36 20 65 35 WSW 994,8 9 0 0,6
28.01.2020 00:00:00 6,2 4,4 5,4 7,4 8,1 30 16 50 27 SW 995,1 12 0 1,2
27.01.2020 23:00:00 6,2 5,2 4,8 7,4 8,1 24 13 40 22 SW 996,2 20 0 0,2
27.01.2020 22:00:00 5,9 4,1 5,0 7,4 8,1 26 14 47 25 SW 997,0 58 0 0,2
27.01.2020 21:00:00 6,5 5,1 5,2 7,4 8,1 26 14 36 19 SSW 997,4 47 0 0,0
27.01.2020 20:00:00 6,1 5,1 4,6 7,4 8,0 20 11 37 20 SW 997,8 58 0 0,0
27.01.2020 19:00:00 5,8 4,8 5,1 7,5 8,1 23 12 49 26 SW 998,0 60 0 1,0
27.01.2020 18:00:00 6,6 5,2 5,8 7,5 8,1 33 18 52 28 WSW 998,3 5 0 1,0
27.01.2020 17:00:00 7,1 5,9 6,6 7,4 8,1 29 16 45 24 WSW 998,5 60 27 0,0
27.01.2020 16:00:00 6,8 6,1 6,5 7,4 8,1 22 12 34 18 WSW 999,3 4,8 0 0,2
27.01.2020 15:00:00 6,7 5,8 6,3 7,4 8,1 22 12 61 33 SW 999,8 4,2 0 3,2
27.01.2020 14:00:00 8,3 7,2 7,8 7,4 8,1 24 13 49 26 SSW 1001,2 19 0 0,2
27.01.2020 13:00:00 9,1 7,0 8,9 7,4 8,1 29 15 49 27 SSW 1002,9 53 0 0,0
27.01.2020 12:00:00 9,1 7,5 7,4 7,4 8,1 31 17 46 25 SSW 1004,0 20 8 0,0
27.01.2020 11:00:00 7,4 6,5 6,6 7,4 8,1 19 11 34 18 SSW 1004,9 57 0 1,2
27.01.2020 10:00:00 8,1 7,3 7,7 7,4 8,1 22 12 35 19 SSW 1005,7 12 0 0,4
27.01.2020 09:00:00 8,1 7,0 7,6 7,4 8,1 22 12 41 22 SW 1006,2 15 0 0,0
27.01.2020 08:00:00 8,0 7,1 7,2 7,4 8,1 25 14 38 20 SSW 1006,2 18 0 0,0
27.01.2020 07:00:00 7,9 6,8 7,4 7,4 8,1 25 13 44 24 SW 1006,6 19 0 0,0
27.01.2020 06:00:00 8,0 6,9 7,1 7,4 8,0 24 13 40 22 SW 1007,2 19 0 0,0
27.01.2020 05:00:00 7,7 6,6 7,2 7,4 8,0 26 14 44 24 SW 1007,6 19 0 0,0
27.01.2020 04:00:00 8,1 6,9 7,4 7,3 8,0 28 15 40 22 SW 1008,2 20 0 0,0
27.01.2020 03:00:00 8,3 7,1 7,2 7,4 8,1 26 14 40 21 SW 1008,5 20 0 0,0
27.01.2020 02:00:00 8,4 7,2 7,7 7,3 8,0 26 14 42 23 SW 1008,7 18 0 0,0
27.01.2020 01:00:00 8,7 7,5 7,9 7,3 8,0 29 16 42 23 WSW 1008,8 38 0 0,0
27.01.2020 00:00:00 8,6 7,8 7,7 7,3 8,1 27 14 42 23 WSW 1008,8 40 0 0,2
26.01.2020 23:00:00 8,4 7,6 7,6 7,3 8,1 20 11 36 19 SW 1008,9 45 0 0,0
26.01.2020 22:00:00 9,2 8,3 8,7 7,2 8,0 24 13 41 22 SW 1008,8 20 0 0,0
26.01.2020 21:00:00 9,4 8,6 8,8 7,2 8,1 24 13 48 26 SW 1008,9 20 0 0,0
26.01.2020 20:00:00 9,2 8,6 8,7 7,2 8,1 27 14 52 28 SW 1008,9 4,8 0 1,6
26.01.2020 19:00:00 9,0 8,5 8,7 7,1 8,1 27 15 52 28 SSW 1008,7 4,6 0 1,8
26.01.2020 18:00:00 9,1 8,3 8,7 7,1 8,1 32 17 50 27 SSW 1009,4 5 0 0,8
26.01.2020 17:00:00 9,1 8,3 8,7 7,1 8,1 30 16 58 32 SSW 1009,7 13 0 0,4
26.01.2020 16:00:00 9,3 8,2 8,9 7,0 8,1 32 18 58 32 SSW 1010,0 13 0 0,2
26.01.2020 15:00:00 9,4 7,8 9,4 6,9 8,0 32 18 51 27 SSW 1011,0 18 0 0,0
26.01.2020 14:00:00 9,0 7,3 8,7 6,9 8,1 29 16 47 26 SSW 1011,8 16 0 0,0
26.01.2020 13:00:00 8,5 7,1 8,4 6,9 8,0 29 16 42 23 SSW 1012,7 13 0 0,0
26.01.2020 12:00:00 9,2 6,8 9,5 6,9 8,1 24 13 40 22 SSW 1013,3 16 29 0,0
26.01.2020 11:00:00 8,5 7,1 8,5 6,8 8,1 24 13 37 20 SSW 1013,5 10 26 0,0
26.01.2020 10:00:00 7,7 7,1 7,1 6,8 8,1 21 11 30 16 SSW 1013,7 6 2 0,0
26.01.2020 09:00:00 7,2 6,8 6,7 6,8 8,1 16 8 23 12 SSW 1013,6 4,2 0 0,0
26.01.2020 08:00:00 6,9 6,6 6,6 6,8 8,0 17 9 27 15 SSW 1013,7 4,0 0 0,0
26.01.2020 07:00:00 6,8 6,7 6,6 6,8 8,1 16 9 29 16 SSW 1013,5 4,2 0 0,0
26.01.2020 06:00:00 6,6 6,5 6,2 6,8 8,1 15 8 27 15 S 1013,6 0,5 0 0,0
26.01.2020 05:00:00 6,3 6,2 6,2 6,8 8,1 16 9 29 16 S 1013,7 0,3 0 0,0
26.01.2020 04:00:00 6,3 6,2 6,2 6,8 8,1 21 11 31 17 S 1014,2 0,8 0 0,0
26.01.2020 03:00:00 6,6 6,5 6,4 6,7 8,1 15 8 28 15 SSW 1014,5 1,9 0 0,0
26.01.2020 02:00:00 6,4 6,3 6,1 6,7 8,1 19 10 32 17 SSW 1014,9 1,9 0 0,0
26.01.2020 01:00:00 6,2 6,1 6,1 6,8 8,1 15 8 27 14 S 1015,3 0,3 0 0,0
26.01.2020 00:00:00 6,2 6,1 5,8 6,8 8,1 16 9 25 14 SSW 1015,6 0,4 0 0,0
25.01.2020 23:00:00 5,8 5,5 5,7 6,8 8,1 16 9 32 17 SSW 1015,9 0,6 0 0,0
25.01.2020 22:00:00 5,8 5,5 5,6 6,8 8,1 17 9 32 17 SSW 1015,9 0,8 0 0,0
25.01.2020 21:00:00 5,9 5,5 5,1 6,7 8,1 22 12 31 17 S 1016,0 3,2 0 0,0
25.01.2020 20:00:00 6,1 5,7 4,6 6,7 8,1 21 12 32 17 S 1015,9 3,3 0 0,0
25.01.2020 19:00:00 5,7 5,1 4,7 6,7 8,1 13 7 21 11 S 1016,0 4,0 0 0,0
25.01.2020 18:00:00 6,1 5,1 5,1 6,6 8,1 12 7 19 10 S 1015,9 6 9 0,0
25.01.2020 17:00:00 7,5 5,8 7,3 6,6 8,1 12 6 23 13 S 1016,0 10 50 0,0
25.01.2020 16:00:00 8,9 6,2 10,5 6,5 8,1 16 8 26 14 S 1016,0 17 60 0,0
25.01.2020 15:00:00 8,5 5,9 10,8 6,5 8,1 17 9 32 18 SSE 1016,6 14 60 0,0
25.01.2020 14:00:00 8,1 6,4 9,4 6,4 8,1 19 11 30 16 S 1017,3 14 52 0,0
25.01.2020 13:00:00 6,5 6,4 7,1 6,4 8,1 17 9 27 15 S 1017,9 8 42 0,0
25.01.2020 12:00:00 5,2 5,1 5,3 6,4 8,1 19 11 26 14 SSE 1018,9 0,7 26 0,0
25.01.2020 11:00:00 4,6 4,5 4,7 6,4 8,1 19 10 26 14 SSE 1019,2 0,2 0 0,0
25.01.2020 10:00:00 4,5 4,4 4,1 6,4 8,1 16 9 25 13 SSE 1019,0 0,2 0 0,0
25.01.2020 09:00:00 4,1 4,0 3,5 6,5 8,1 18 10 26 14 SSE 1019,3 0,1 0 0,0
25.01.2020 08:00:00 3,5 3,4 3,0 6,4 8,1 14 8 22 12 SSE 1019,4 0,1 0 0,0
25.01.2020 07:00:00 3,0 2,9 2,9 6,5 8,1 15 8 22 12 SSE 1019,2 0,1 0 0,0
25.01.2020 06:00:00 2,8 2,7 2,6 6,5 8,1 13 7 19 10 SE 1019,8 0,1 0 0,0
25.01.2020 05:00:00 3,1 2,8 3,1 6,5 8,1 10 5 18 10 SE 1019,8 0,1 0 0,0
25.01.2020 04:00:00 3,5 3,2 3,4 6,5 8,1 10 6 19 10 SE 1020,3 0,1 0 0,0
25.01.2020 03:00:00 4,2 3,9 3,8 6,5 8,1 11 6 20 11 SE 1020,9 0,1 0 0,0
25.01.2020 02:00:00 3,9 3,3 3,7 6,5 8,1 10 5 22 12 SE 1021,1 0,4 0 0,0
25.01.2020 01:00:00 3,8 2,8 3,6 6,5 8,1 13 7 25 14 ESE 1021,3 3,0 0 0,0
25.01.2020 00:00:00 3,8 2,6 3,6 6,5 8,1 14 7 27 14 E 1021,5 3,2 0 0,0
24.01.2020 23:00:00 3,7 2,5 3,4 6,6 8,1 17 9 26 14 ESE 1021,8 3,8 0 0,0
24.01.2020 22:00:00 3,4 2,5 3,2 6,6 8,2 18 10 26 14 E 1022,2 3,4 0 0,0
24.01.2020 21:00:00 3,3 2,4 3,2 6,6 8,2 14 8 20 11 E 1022,1 2,9 0 0,0
24.01.2020 20:00:00 3,5 2,5 2,8 6,6 8,1 13 7 20 11 ESE 1022,3 3,3 0 0,0
24.01.2020 19:00:00 3,1 2,2 2,6 6,6 8,2 13 7 23 12 SE 1022,0 2,7 0 0,0
24.01.2020 18:00:00 3,6 2,6 3,4 6,6 8,1 13 7 23 12 SE 1022,0 4,4 7 0,0
24.01.2020 17:00:00 3,9 2,7 4,0 6,5 8,1 10 5 24 13 SE 1021,9 4,9 5 0,0
24.01.2020 16:00:00 4,1 2,8 4,4 6,5 8,1 15 8 25 13 SE 1022,0 4,7 0 0,0
24.01.2020 15:00:00 4,5 2,8 5,4 6,5 8,2 16 9 25 13 SE 1022,4 6 13 0,0
24.01.2020 14:00:00 6,1 3,6 7,6 6,5 8,2 15 8 23 13 ESE 1022,7 7 54 0,0
24.01.2020 13:00:00 5,7 3,5 5,8 6,5 8,2 16 9 26 14 ESE 1023,1 6 7 0,0
24.01.2020 12:00:00 5,1 3,4 5,4 6,5 8,2 15 8 26 14 E 1024,0 5 0 0,0
24.01.2020 11:00:00 5,0 3,5 5,0 6,5 8,2 16 8 26 14 ESE 1023,8 5 11 0,0
24.01.2020 10:00:00 4,4 3,4 3,5 6,5 8,2 11 6 20 11 ESE 1023,3 4,3 45 0,0
24.01.2020 09:00:00 3,8 3,1 3,4 6,5 8,2 10 6 16 9 ESE 1023,3 3,3 0 0,0
24.01.2020 08:00:00 3,6 2,9 3,5 6,5 8,2 10 5 16 9 SE 1023,1 2,0 0 0,0
24.01.2020 07:00:00 3,8 3,1 3,8 6,5 8,2 9 5 15 8 SE 1022,9 1,9 0 0,0
24.01.2020 06:00:00 4,3 3,3 4,2 6,5 8,2 9 5 16 9 SE 1023,1 3,1 0 0,0
24.01.2020 05:00:00 4,6 3,4 4,5 6,5 8,2 13 7 24 13 ESE 1023,5 3,9 0 0,0
24.01.2020 04:00:00 5,1 3,9 5,0 6,5 8,2 12 7 21 12 ESE 1023,6 3,6 0 0,0
24.01.2020 03:00:00 5,8 4,0 5,6 6,5 8,2 10 5 25 14 E 1024,0 6 0 0,0
24.01.2020 02:00:00 5,9 3,6 5,6 6,5 8,2 12 7 23 12 E 1024,9 10 0 0,0
24.01.2020 01:00:00 5,9 3,6 5,6 6,5 8,2 14 8 26 14 E 1025,6 6 0 0,0
24.01.2020 00:00:00 6,1 3,8 5,8 6,5 8,2 15 8 35 19 E 1025,7 10 0 0,0
23.01.2020 23:00:00 6,1 3,6 5,7 6,4 8,2 21 12 35 19 E 1025,9 15 0 0,0
23.01.2020 22:00:00 6,1 3,6 5,6 6,5 8,2 22 12 38 21 E 1025,9 15 0 0,0
23.01.2020 21:00:00 6,1 3,9 5,7 6,4 8,2 20 11 32 18 E 1026,1 16 0 0,0
23.01.2020 20:00:00 5,9 3,9 5,5 6,4 8,3 18 10 33 18 E 1026,5 14 0 0,0
23.01.2020 19:00:00 5,6 3,8 5,3 6,4 8,3 23 12 39 21 E 1026,5 16 0 0,0
23.01.2020 18:00:00 5,5 4,0 5,3 6,4 8,3 22 12 39 21 E 1026,9 11 0 0,0
23.01.2020 17:00:00 5,4 4,2 5,4 6,4 8,3 19 10 35 19 E 1027,3 8 0 0,0
23.01.2020 16:00:00 5,5 4,3 5,6 6,3 8,3 20 11 33 18 E 1027,8 7 0 0,0
23.01.2020 15:00:00 5,7 4,5 5,9 6,3 8,3 20 11 33 18 E 1028,4 8 0 0,0
23.01.2020 14:00:00 6,1 4,1 6,9 6,2 8,3 20 11 36 19 ENE 1029,3 11 19 0,0
23.01.2020 13:00:00 6,7 3,8 6,7 6,2 8,3 23 13 39 21 E 1029,8 13 49 0,0
23.01.2020 12:00:00 6,1 2,9 6,7 6,2 8,3 25 13 39 21 ENE 1030,5 8 60 0,0
23.01.2020 11:00:00 5,6 3,6 4,7 6,2 8,3 19 11 31 17 E 1030,9 8 34 0,0
23.01.2020 10:00:00 4,5 3,0 2,9 6,3 8,3 16 9 29 16 E 1031,1 7 0 0,0
23.01.2020 09:00:00 3,5 2,5 2,2 6,3 8,3 18 10 29 16 E 1031,1 6 0 0,0
23.01.2020 08:00:00 2,9 2,0 1,5 6,4 8,4 16 9 26 14 E 1031,3 3,7 0 0,0
23.01.2020 07:00:00 2,4 1,4 1,0 6,4 8,3 13 7 25 14 E 1031,7 4,0 0 0,0
23.01.2020 06:00:00 2,1 1,2 1,1 6,4 8,4 14 8 22 12 E 1031,3 3,7 0 0,0
23.01.2020 05:00:00 3,0 2,3 2,1 6,4 8,4 16 9 31 17 E 1031,7 2,9 0 0,0
23.01.2020 04:00:00 3,0 2,1 2,4 6,4 8,4 18 10 35 19 E 1032,4 2,7 0 0,0
23.01.2020 03:00:00 3,9 2,7 3,3 6,4 8,4 22 12 39 21 E 1033,0 3,6 0 0,0
23.01.2020 02:00:00 4,6 3,1 4,1 6,4 8,4 22 12 40 22 E 1033,3 3,9 0 0,0
23.01.2020 01:00:00 5,3 3,5 5,1 6,4 8,4 23 12 39 21 E 1033,6 7 0 0,0

tt = Température de l'air
td = dewpoint
tt 5cm = Température de l'air 5cm
tt -20cm = Température de l'air -20cm
tt -100cm = Température de l'air -100cm
ff = Vitesse du vent
fx = gusts
dd = Direction du vent
ppp = reduced air pressure
vv = visibility
sd = Ensoleillement
rr = Quantités de précipitations

stations d'obs. à proximité